Location: Crescent
(42.8242°N, 73.7329°W)
Time: 07:18:43
(UTC+00:00)

Vanguard 1 - Pass Details

Date: 19 February 2026
Orbit: 653 x 3818 km, 34.2° (Epoch: 12 March)

Event Time Altitude Azimuth Distance (km) Brightness Sun altitude
Rises 19:59:33 0° 235° (SW) 4,375 14.8 23.5°
Reaches altitude 10° 20:02:02 10° 230° (SW) 3,701 15.1 23.2°
Maximum altitude 20:11:45 51° 158° (SSE) 2,697 12.8 21.8°
Drops below altitude 10° 20:29:05 10° 90° (E) 6,331 13.8 19.4°
Sets 20:34:56 0° 86° (E) 7,668 14.1 18.5°
